JST804 YBBN-YPAD

Flight info

Callsign JST804
Flight time 2h 16m
Altitude 34000
Route SANEG Q4 PAVBI Q16 MIA Q4 WOONA Q60 KAKLU
Aircraft A320/M-SDE3FGHIRWY/LB1

Departure

Time 2026-04-30 07:10
Airport Brisbane International Airport (YBBN)

Arrival

Time 2026-04-30 09:26
Airport Adelaide International Airport (YPAD)
Time Latitude Longitude Altitude Speed Heading
2026-04-30 06:31 -27.38612 153.12257 22 ft 0 kts 290°
2026-04-30 06:59 -27.38618 153.12276 21 ft 4 kts 278°
2026-04-30 07:00 -27.38619 153.12300 21 ft 4 kts 275°
2026-04-30 07:00 -27.38623 153.12316 21 ft 4 kts
2026-04-30 07:00 -27.38643 153.12307 23 ft 1 kts 27°
2026-04-30 07:00 -27.38644 153.12306 21 ft 0 kts 27°
2026-04-30 07:04 -27.38635 153.12312 21 ft 4 kts 27°
2026-04-30 07:04 -27.38606 153.12328 21 ft 6 kts 27°
2026-04-30 07:05 -27.38552 153.12365 21 ft 1 kts 64°
2026-04-30 07:05 -27.38553 153.12391 21 ft 5 kts 95°
2026-04-30 07:05 -27.38551 153.12431 21 ft 5 kts 72°
2026-04-30 07:06 -27.38532 153.12457 23 ft 5 kts 39°
2026-04-30 07:06 -27.38497 153.12476 21 ft 6 kts 25°
2026-04-30 07:06 -27.38452 153.12501 21 ft 8 kts 26°
2026-04-30 07:06 -27.38399 153.12531 21 ft 9 kts 27°
2026-04-30 07:07 -27.38338 153.12567 22 ft 11 kts 28°
2026-04-30 07:07 -27.38268 153.12608 21 ft 12 kts 27°
2026-04-30 07:07 -27.38196 153.12650 21 ft 11 kts 26°
2026-04-30 07:07 -27.38129 153.12687 21 ft 10 kts 26°
2026-04-30 07:08 -27.38087 153.12710 21 ft 10 kts 26°
2026-04-30 07:08 -27.38029 153.12743 21 ft 9 kts 28°
2026-04-30 07:08 -27.37991 153.12792 21 ft 8 kts 78°
2026-04-30 07:08 -27.38007 153.12848 21 ft 8 kts 117°
2026-04-30 07:09 -27.38037 153.12913 23 ft 11 kts 116°
2026-04-30 07:09 -27.38082 153.13015 23 ft 11 kts 117°
2026-04-30 07:09 -27.38116 153.13049 22 ft 9 kts 166°
2026-04-30 07:09 -27.38196 153.13014 23 ft 22 kts 207°
2026-04-30 07:10 -27.38551 153.12812 23 ft 89 kts 207°
2026-04-30 07:10 -27.39269 153.12400 21 ft 139 kts 207°
2026-04-30 07:10 -27.40255 153.11840 110 ft 172 kts 205°
2026-04-30 07:10 -27.41286 153.11253 802 ft 167 kts 205°
2026-04-30 07:11 -27.42350 153.10774 1420 ft 164 kts 181°
2026-04-30 07:11 -27.43446 153.11072 1826 ft 170 kts 150°
2026-04-30 07:11 -27.44546 153.11769 2070 ft 193 kts 149°
2026-04-30 07:11 -27.45785 153.12554 2360 ft 214 kts 149°
2026-04-30 07:12 -27.47089 153.13369 3165 ft 214 kts 149°
2026-04-30 07:12 -27.48399 153.14177 3994 ft 215 kts 149°
2026-04-30 07:12 -27.49821 153.14744 4798 ft 222 kts 171°
2026-04-30 07:12 -27.51448 153.14591 5230 ft 250 kts 187°
2026-04-30 07:13 -27.53197 153.14159 5846 ft 262 kts 188°
2026-04-30 07:13 -27.54991 153.13697 6666 ft 267 kts 188°
2026-04-30 07:13 -27.56784 153.13071 7488 ft 273 kts 195°
2026-04-30 07:13 -27.58579 153.12343 8277 ft 276 kts 195°
2026-04-30 07:14 -27.60403 153.11617 9046 ft 280 kts 195°
2026-04-30 07:14 -27.62257 153.10898 9809 ft 284 kts 194°
2026-04-30 07:14 -27.64165 153.10227 10410 ft 295 kts 194°
2026-04-30 07:14 -27.66201 153.09556 10658 ft 315 kts 194°
2026-04-30 07:15 -27.68368 153.08857 11054 ft 330 kts 194°
2026-04-30 07:15 -27.70593 153.08133 11673 ft 335 kts 194°
2026-04-30 07:15 -27.72845 153.07391 12324 ft 340 kts 195°
2026-04-30 07:15 -27.75128 153.06631 12957 ft 344 kts 195°
2026-04-30 07:16 -27.77434 153.05860 13583 ft 347 kts 195°
2026-04-30 07:16 -27.79759 153.05068 14197 ft 351 kts 198°
2026-04-30 07:16 -27.81990 153.03910 14791 ft 356 kts 210°
2026-04-30 07:16 -27.83991 153.02235 15369 ft 361 kts 220°
2026-04-30 07:17 -27.85886 153.00350 15945 ft 364 kts 220°
2026-04-30 07:17 -27.87794 152.98455 16505 ft 367 kts 220°
2026-04-30 07:17 -27.91669 152.94621 17620 ft 373 kts 220°
2026-04-30 07:18 -27.93604 152.92706 18157 ft 376 kts 220°
2026-04-30 07:18 -27.95582 152.90750 18686 ft 379 kts 220°
2026-04-30 07:18 -27.97573 152.88784 19233 ft 381 kts 220°
2026-04-30 07:18 -27.99578 152.86806 19778 ft 384 kts 221°
2026-04-30 07:19 -28.01595 152.84811 20316 ft 386 kts 221°
2026-04-30 07:19 -28.03623 152.82797 20848 ft 389 kts 221°
2026-04-30 07:19 -28.05660 152.80769 21357 ft 391 kts 221°
2026-04-30 07:19 -28.07708 152.78733 21827 ft 393 kts 221°
2026-04-30 07:20 -28.09768 152.76682 22291 ft 395 kts 221°
2026-04-30 07:20 -28.11839 152.74620 22755 ft 397 kts 221°
2026-04-30 07:20 -28.13922 152.72548 23202 ft 400 kts 222°
2026-04-30 07:20 -28.16016 152.70462 23641 ft 402 kts 222°
2026-04-30 07:21 -28.18121 152.68366 24078 ft 404 kts 222°
2026-04-30 07:21 -28.20233 152.66262 24512 ft 405 kts 222°
2026-04-30 07:21 -28.22357 152.64144 24929 ft 407 kts 223°
2026-04-30 07:21 -28.24487 152.62016 25349 ft 409 kts 223°
2026-04-30 07:22 -28.28769 152.57732 26159 ft 412 kts 223°
2026-04-30 07:22 -28.30922 152.55579 26570 ft 413 kts 223°
2026-04-30 07:22 -28.33085 152.53418 26948 ft 415 kts 223°
2026-04-30 07:23 -28.35256 152.51250 27327 ft 416 kts 223°
2026-04-30 07:23 -28.37417 152.49060 27702 ft 417 kts 226°
2026-04-30 07:23 -28.39325 152.46593 28068 ft 416 kts 234°
2026-04-30 07:23 -28.41112 152.43998 28432 ft 418 kts 234°
2026-04-30 07:24 -28.42881 152.41432 28796 ft 419 kts 234°
2026-04-30 07:24 -28.44683 152.38827 29167 ft 420 kts 234°
2026-04-30 07:24 -28.46491 152.36215 29523 ft 421 kts 234°
2026-04-30 07:24 -28.48303 152.33592 29878 ft 423 kts 234°
2026-04-30 07:25 -28.50119 152.30960 30232 ft 424 kts 234°
2026-04-30 07:25 -28.51940 152.28317 30553 ft 425 kts 234°
2026-04-30 07:25 -28.53766 152.25666 30895 ft 426 kts 234°
2026-04-30 07:25 -28.55591 152.23017 31320 ft 425 kts 234°
2026-04-30 07:26 -28.57408 152.20377 31740 ft 423 kts 234°
2026-04-30 07:26 -28.59218 152.17745 32146 ft 422 kts 234°
2026-04-30 07:26 -28.61026 152.15113 32542 ft 421 kts 234°
2026-04-30 07:26 -28.62828 152.12487 32942 ft 420 kts 234°
2026-04-30 07:27 -28.64623 152.09867 33336 ft 420 kts 234°
2026-04-30 07:27 -28.66418 152.07248 33722 ft 419 kts 234°
2026-04-30 07:27 -28.68210 152.04637 34117 ft 418 kts 234°
2026-04-30 07:27 -28.70001 152.02025 34317 ft 418 kts 234°
2026-04-30 07:28 -28.73576 151.96805 34347 ft 418 kts 234°
2026-04-30 07:28 -28.77146 151.91587 34348 ft 417 kts 234°
2026-04-30 07:29 -28.80715 151.86358 34348 ft 418 kts 234°
2026-04-30 07:29 -28.84278 151.81124 34348 ft 418 kts 234°
2026-04-30 07:30 -28.89627 151.73275 34346 ft 418 kts 234°
2026-04-30 07:31 -28.93194 151.68024 34349 ft 419 kts 234°
2026-04-30 07:31 -28.96700 151.62772 34355 ft 419 kts 235°
2026-04-30 07:32 -29.00192 151.57448 34357 ft 419 kts 235°
2026-04-30 07:32 -29.03680 151.52113 34356 ft 419 kts 235°
2026-04-30 07:33 -29.07178 151.46780 34360 ft 420 kts 235°
2026-04-30 07:33 -29.10691 151.41451 34362 ft 420 kts 235°
2026-04-30 07:34 -29.14194 151.36108 34362 ft 420 kts 235°
2026-04-30 07:34 -29.17693 151.30750 34364 ft 420 kts 235°
2026-04-30 07:35 -29.21194 151.25397 34367 ft 420 kts 235°
2026-04-30 07:35 -29.24684 151.20025 34368 ft 420 kts 236°
2026-04-30 07:36 -29.28111 151.14601 34370 ft 420 kts 236°
2026-04-30 07:36 -29.31522 151.09175 34371 ft 420 kts 236°
2026-04-30 07:37 -29.34948 151.03743 34373 ft 420 kts 236°
2026-04-30 07:37 -29.38350 150.98349 34374 ft 420 kts 236°
2026-04-30 07:38 -29.41775 150.92917 34375 ft 420 kts 236°
2026-04-30 07:38 -29.45203 150.87485 34375 ft 421 kts 236°
2026-04-30 07:39 -29.48630 150.82043 34375 ft 420 kts 236°
2026-04-30 07:39 -29.52047 150.76589 34372 ft 421 kts 236°
2026-04-30 07:40 -29.55467 150.71140 34367 ft 421 kts 236°
2026-04-30 07:40 -29.58882 150.65683 34364 ft 421 kts 236°
2026-04-30 07:41 -29.62301 150.60220 34363 ft 421 kts 236°
2026-04-30 07:41 -29.65722 150.54755 34363 ft 421 kts 236°
2026-04-30 07:42 -29.69130 150.49279 34363 ft 421 kts 236°
2026-04-30 07:42 -29.72542 150.43799 34363 ft 421 kts 236°
2026-04-30 07:43 -29.75956 150.38317 34361 ft 422 kts 235°
2026-04-30 07:43 -29.79366 150.32825 34356 ft 421 kts 236°
2026-04-30 07:44 -29.82777 150.27333 34361 ft 422 kts 235°
2026-04-30 07:44 -29.86182 150.21830 34359 ft 422 kts 236°
2026-04-30 07:45 -29.89587 150.16320 34361 ft 422 kts 235°
2026-04-30 07:45 -29.92997 150.10805 34361 ft 422 kts 235°
2026-04-30 07:46 -29.96405 150.05288 34361 ft 422 kts 235°
2026-04-30 07:46 -29.99808 149.99764 34361 ft 422 kts 236°
2026-04-30 07:47 -30.03204 149.94236 34361 ft 422 kts 236°
2026-04-30 07:47 -30.06602 149.88705 34362 ft 422 kts 236°
2026-04-30 07:48 -30.09999 149.83173 34363 ft 422 kts 236°
2026-04-30 07:48 -30.13374 149.77669 34364 ft 422 kts 236°
2026-04-30 07:49 -30.16767 149.72135 34363 ft 422 kts 236°
2026-04-30 07:49 -30.20152 149.66598 34360 ft 422 kts 236°
2026-04-30 07:50 -30.23527 149.61053 34359 ft 422 kts 236°
2026-04-30 07:50 -30.26905 149.55500 34362 ft 422 kts 236°
2026-04-30 07:51 -30.30283 149.49951 34363 ft 422 kts 236°
2026-04-30 07:51 -30.33660 149.44395 34365 ft 422 kts 236°
2026-04-30 07:52 -30.37044 149.38840 34366 ft 422 kts 236°
2026-04-30 07:52 -30.40422 149.33283 34367 ft 422 kts 236°
2026-04-30 07:53 -30.43785 149.27719 34367 ft 421 kts 236°
2026-04-30 07:53 -30.47137 149.22154 34366 ft 421 kts 236°
2026-04-30 07:54 -30.50494 149.16591 34366 ft 421 kts 236°
2026-04-30 07:54 -30.53846 149.11030 34363 ft 420 kts 236°
2026-04-30 07:55 -30.57193 149.05473 34362 ft 420 kts 236°
2026-04-30 07:55 -30.60531 148.99917 34361 ft 420 kts 236°
2026-04-30 07:56 -30.63874 148.94359 34361 ft 420 kts 236°
2026-04-30 07:56 -30.67210 148.88795 34360 ft 419 kts 236°
2026-04-30 07:57 -30.70516 148.83267 34360 ft 419 kts 236°
2026-04-30 07:57 -30.73843 148.77702 34357 ft 419 kts 236°
2026-04-30 07:58 -30.77166 148.72129 34360 ft 419 kts 236°
2026-04-30 07:58 -30.80484 148.66554 34358 ft 419 kts 236°
2026-04-30 07:59 -30.83804 148.60978 34358 ft 419 kts 236°
2026-04-30 07:59 -30.86561 148.56339 34362 ft 419 kts 236°
2026-04-30 08:00 -30.91536 148.47957 34356 ft 420 kts 236°
2026-04-30 08:00 -30.94856 148.42364 34360 ft 420 kts 236°
2026-04-30 08:01 -30.98174 148.36762 34360 ft 420 kts 236°
2026-04-30 08:01 -31.01486 148.31147 34362 ft 420 kts 236°
2026-04-30 08:02 -31.06451 148.22719 34358 ft 421 kts 236°
2026-04-30 08:03 -31.13077 148.11463 34356 ft 421 kts 236°
2026-04-30 08:04 -31.16355 148.05801 34358 ft 421 kts 237°
2026-04-30 08:04 -31.19593 148.00094 34355 ft 421 kts 237°
2026-04-30 08:05 -31.22823 147.94377 34349 ft 422 kts 237°
2026-04-30 08:05 -31.26051 147.88702 34346 ft 422 kts 237°
2026-04-30 08:06 -31.29306 147.82973 34348 ft 423 kts 237°
2026-04-30 08:06 -31.32553 147.77227 34351 ft 424 kts 237°
2026-04-30 08:07 -31.35798 147.71473 34353 ft 424 kts 237°
2026-04-30 08:07 -31.39057 147.65711 34352 ft 425 kts 237°
2026-04-30 08:08 -31.42311 147.59941 34355 ft 425 kts 237°
2026-04-30 08:08 -31.45564 147.54161 34358 ft 425 kts 237°
2026-04-30 08:09 -31.48811 147.48379 34357 ft 425 kts 237°
2026-04-30 08:09 -31.52058 147.42598 34357 ft 425 kts 237°
2026-04-30 08:10 -31.55300 147.36806 34354 ft 425 kts 237°
2026-04-30 08:10 -31.58543 147.31011 34350 ft 425 kts 237°
2026-04-30 08:11 -31.61769 147.25251 34353 ft 425 kts 237°
2026-04-30 08:11 -31.65010 147.19445 34354 ft 425 kts 237°
2026-04-30 08:12 -31.68245 147.13629 34354 ft 426 kts 237°
2026-04-30 08:12 -31.71485 147.07803 34354 ft 426 kts 237°
2026-04-30 08:13 -31.74734 147.01978 34355 ft 426 kts 237°
2026-04-30 08:13 -31.77973 146.96141 34356 ft 427 kts 237°
2026-04-30 08:14 -31.81205 146.90290 34357 ft 427 kts 237°
2026-04-30 08:14 -31.84438 146.84431 34355 ft 427 kts 237°
2026-04-30 08:15 -31.87671 146.78566 34352 ft 427 kts 237°
2026-04-30 08:15 -31.90905 146.72693 34351 ft 428 kts 237°
2026-04-30 08:16 -31.94144 146.66818 34348 ft 428 kts 237°
2026-04-30 08:16 -31.97382 146.60930 34349 ft 428 kts 237°
2026-04-30 08:17 -32.00619 146.55036 34350 ft 429 kts 237°
2026-04-30 08:17 -32.03837 146.49166 34345 ft 429 kts 237°
2026-04-30 08:18 -32.07067 146.43250 34343 ft 429 kts 237°
2026-04-30 08:18 -32.10301 146.37331 34343 ft 430 kts 237°
2026-04-30 08:19 -32.13531 146.31403 34342 ft 429 kts 237°
2026-04-30 08:19 -32.16768 146.25478 34343 ft 429 kts 237°
2026-04-30 08:20 -32.19994 146.19547 34342 ft 429 kts 238°
2026-04-30 08:20 -32.23208 146.13603 34341 ft 429 kts 238°
2026-04-30 08:21 -32.26429 146.07662 34342 ft 430 kts 238°
2026-04-30 08:21 -32.29646 146.01705 34355 ft 430 kts 238°
2026-04-30 08:22 -32.32839 145.95789 34364 ft 430 kts 238°
2026-04-30 08:22 -32.36061 145.89828 34366 ft 430 kts 238°
2026-04-30 08:23 -32.39270 145.83864 34368 ft 430 kts 238°
2026-04-30 08:23 -32.42480 145.77895 34370 ft 430 kts 238°
2026-04-30 08:24 -32.45688 145.71914 34371 ft 430 kts 238°
2026-04-30 08:24 -32.48900 145.65937 34370 ft 430 kts 238°
2026-04-30 08:25 -32.52103 145.59955 34365 ft 430 kts 238°
2026-04-30 08:25 -32.55299 145.53959 34362 ft 430 kts 238°
2026-04-30 08:26 -32.58497 145.47962 34360 ft 430 kts 238°
2026-04-30 08:26 -32.61696 145.41959 34360 ft 431 kts 239°
2026-04-30 08:27 -32.64893 145.35951 34359 ft 431 kts 239°
2026-04-30 08:27 -32.68090 145.29933 34358 ft 431 kts 239°
2026-04-30 08:28 -32.71278 145.23901 34357 ft 432 kts 239°
2026-04-30 08:28 -32.74466 145.17854 34361 ft 432 kts 239°
2026-04-30 08:29 -32.77665 145.11809 34361 ft 432 kts 239°
2026-04-30 08:29 -32.80866 145.05755 34360 ft 432 kts 239°
2026-04-30 08:30 -32.84031 144.99741 34357 ft 432 kts 239°
2026-04-30 08:30 -32.87210 144.93670 34358 ft 432 kts 239°
2026-04-30 08:31 -32.90398 144.87595 34358 ft 433 kts 240°
2026-04-30 08:31 -32.93582 144.81516 34359 ft 433 kts 240°
2026-04-30 08:32 -32.96766 144.75436 34336 ft 433 kts 240°
2026-04-30 08:32 -32.99944 144.69356 34325 ft 432 kts 240°
2026-04-30 08:33 -33.03118 144.63277 34319 ft 432 kts 240°
2026-04-30 08:33 -33.06287 144.57183 34316 ft 433 kts 240°
2026-04-30 08:34 -33.09454 144.51075 34315 ft 433 kts 240°
2026-04-30 08:34 -33.12622 144.44970 34314 ft 433 kts 240°
2026-04-30 08:35 -33.15792 144.38871 34294 ft 433 kts 240°
2026-04-30 08:35 -33.18952 144.32757 34289 ft 433 kts 240°
2026-04-30 08:36 -33.22096 144.26632 34283 ft 432 kts 241°
2026-04-30 08:36 -33.25228 144.20547 34278 ft 433 kts 241°
2026-04-30 08:37 -33.28378 144.14423 34276 ft 433 kts 240°
2026-04-30 08:37 -33.31533 144.08293 34276 ft 433 kts 241°
2026-04-30 08:38 -33.34678 144.02151 34272 ft 433 kts 241°
2026-04-30 08:38 -33.37822 143.96011 34268 ft 433 kts 242°
2026-04-30 08:39 -33.40968 143.89860 34266 ft 433 kts 242°
2026-04-30 08:39 -33.44110 143.83706 34262 ft 434 kts 242°
2026-04-30 08:40 -33.47249 143.77535 34262 ft 434 kts 242°
2026-04-30 08:40 -33.50228 143.71263 34260 ft 433 kts 244°
2026-04-30 08:41 -33.53056 143.64894 34258 ft 433 kts 245°
2026-04-30 08:41 -33.55852 143.58562 34256 ft 433 kts 245°
2026-04-30 08:42 -33.58701 143.52204 34255 ft 433 kts 245°
2026-04-30 08:42 -33.61574 143.45853 34256 ft 433 kts 244°
2026-04-30 08:43 -33.64443 143.39495 34255 ft 433 kts 245°
2026-04-30 08:43 -33.67296 143.33131 34251 ft 433 kts 245°
2026-04-30 08:44 -33.70144 143.26752 34252 ft 433 kts 245°
2026-04-30 08:44 -33.72994 143.20378 34249 ft 433 kts 245°
2026-04-30 08:45 -33.75842 143.13997 34243 ft 434 kts 245°
2026-04-30 08:45 -33.78693 143.07606 34242 ft 434 kts 245°
2026-04-30 08:46 -33.81538 143.01208 34237 ft 434 kts 245°
2026-04-30 08:46 -33.84387 142.94805 34232 ft 434 kts 245°
2026-04-30 08:47 -33.87233 142.88397 34228 ft 434 kts 245°
2026-04-30 08:47 -33.90070 142.81971 34228 ft 435 kts 245°
2026-04-30 08:48 -33.92905 142.75539 34225 ft 435 kts 246°
2026-04-30 08:48 -33.95722 142.69146 34226 ft 435 kts 246°
2026-04-30 08:49 -33.98555 142.62699 34221 ft 435 kts 246°
2026-04-30 08:49 -34.01391 142.56248 34223 ft 436 kts 246°
2026-04-30 08:50 -34.04225 142.49792 34227 ft 435 kts 246°
2026-04-30 08:50 -34.07046 142.43329 34228 ft 436 kts 246°
2026-04-30 08:51 -34.09871 142.36864 34221 ft 436 kts 246°
2026-04-30 08:51 -34.12686 142.30393 34223 ft 436 kts 246°
2026-04-30 08:52 -34.15503 142.23916 34215 ft 436 kts 246°
2026-04-30 08:52 -34.17844 142.18530 34212 ft 436 kts 246°
2026-04-30 08:53 -34.20652 142.12046 34208 ft 436 kts 246°
2026-04-30 08:53 -34.23284 142.05474 34215 ft 433 kts 252°
2026-04-30 08:54 -34.25554 141.98739 34205 ft 433 kts 252°
2026-04-30 08:54 -34.27830 141.92006 34203 ft 433 kts 252°
2026-04-30 08:55 -34.30101 141.85264 34202 ft 433 kts 252°
2026-04-30 08:55 -34.32364 141.78520 34200 ft 433 kts 252°
2026-04-30 08:56 -34.34611 141.71820 34201 ft 433 kts 252°
2026-04-30 08:56 -34.36870 141.65073 34199 ft 432 kts 252°
2026-04-30 08:57 -34.39121 141.58329 34199 ft 432 kts 252°
2026-04-30 08:57 -34.41361 141.51581 34197 ft 432 kts 252°
2026-04-30 08:58 -34.43602 141.44832 34199 ft 432 kts 252°
2026-04-30 08:58 -34.45846 141.38091 34195 ft 431 kts 252°
2026-04-30 08:59 -34.48084 141.31346 34194 ft 431 kts 252°
2026-04-30 08:59 -34.50309 141.24602 34193 ft 431 kts 252°
2026-04-30 09:00 -34.52526 141.17857 34191 ft 430 kts 252°
2026-04-30 09:00 -34.54741 141.11117 34192 ft 430 kts 252°
2026-04-30 09:01 -34.56959 141.04377 34189 ft 430 kts 252°
2026-04-30 09:01 -34.59161 140.97636 34187 ft 429 kts 251°
2026-04-30 09:02 -34.62456 140.87543 34192 ft 428 kts 251°
2026-04-30 09:02 -34.64625 140.80875 34172 ft 428 kts 250°
2026-04-30 09:03 -34.65719 140.77509 33655 ft 430 kts 250°
2026-04-30 09:03 -34.66817 140.74121 32972 ft 431 kts 251°
2026-04-30 09:03 -34.67912 140.70735 32427 ft 429 kts 251°
2026-04-30 09:03 -34.69002 140.67372 31932 ft 426 kts 251°
2026-04-30 09:04 -34.70080 140.64045 31488 ft 421 kts 251°
2026-04-30 09:04 -34.71149 140.60737 30896 ft 420 kts 252°
2026-04-30 09:04 -34.72208 140.57454 30456 ft 415 kts 252°
2026-04-30 09:04 -34.73171 140.54172 29969 ft 408 kts 259°
2026-04-30 09:05 -34.73645 140.50827 29543 ft 397 kts 270°
2026-04-30 09:05 -34.73790 140.47502 29123 ft 392 kts 270°
2026-04-30 09:05 -34.73927 140.44217 28723 ft 387 kts 270°
2026-04-30 09:05 -34.74059 140.40969 28311 ft 383 kts 270°
2026-04-30 09:06 -34.74186 140.37752 27909 ft 379 kts 270°
2026-04-30 09:06 -34.74310 140.34566 27508 ft 376 kts 270°
2026-04-30 09:06 -34.74436 140.31406 27111 ft 373 kts 270°
2026-04-30 09:06 -34.74561 140.28271 26705 ft 370 kts 270°
2026-04-30 09:07 -34.74681 140.25157 26302 ft 367 kts 270°
2026-04-30 09:07 -34.74799 140.22071 25893 ft 364 kts 270°
2026-04-30 09:07 -34.74914 140.19005 25475 ft 362 kts 270°
2026-04-30 09:07 -34.75028 140.15954 25061 ft 360 kts 270°
2026-04-30 09:08 -34.75139 140.12925 24626 ft 357 kts 270°
2026-04-30 09:08 -34.75248 140.09919 24205 ft 355 kts 270°
2026-04-30 09:08 -34.75358 140.06928 23782 ft 353 kts 270°
2026-04-30 09:08 -34.75471 140.03958 23358 ft 351 kts 270°
2026-04-30 09:09 -34.75582 140.01048 22940 ft 348 kts 270°
2026-04-30 09:09 -34.75695 139.98114 22508 ft 347 kts 270°
2026-04-30 09:09 -34.75805 139.95194 22084 ft 345 kts 270°
2026-04-30 09:09 -34.75911 139.92292 21665 ft 342 kts 270°
2026-04-30 09:10 -34.76013 139.89407 21247 ft 340 kts 270°
2026-04-30 09:10 -34.76114 139.86543 20831 ft 338 kts 270°
2026-04-30 09:10 -34.76216 139.83697 20416 ft 336 kts 270°
2026-04-30 09:10 -34.76317 139.80866 20002 ft 334 kts 270°
2026-04-30 09:11 -34.76417 139.78053 19593 ft 332 kts 270°
2026-04-30 09:11 -34.76516 139.75256 19184 ft 330 kts 270°
2026-04-30 09:11 -34.76615 139.72477 18780 ft 328 kts 271°
2026-04-30 09:11 -34.76712 139.69714 18375 ft 326 kts 271°
2026-04-30 09:12 -34.76805 139.66967 17973 ft 325 kts 271°
2026-04-30 09:12 -34.76896 139.64232 17573 ft 323 kts 271°
2026-04-30 09:12 -34.76986 139.61506 17174 ft 322 kts 271°
2026-04-30 09:12 -34.77076 139.58797 16781 ft 320 kts 271°
2026-04-30 09:13 -34.77168 139.56096 16386 ft 319 kts 271°
2026-04-30 09:13 -34.77259 139.53410 15990 ft 317 kts 271°
2026-04-30 09:13 -34.77347 139.50770 15607 ft 316 kts 271°
2026-04-30 09:13 -34.77433 139.48104 15220 ft 315 kts 271°
2026-04-30 09:14 -34.77518 139.45451 14830 ft 313 kts 271°
2026-04-30 09:14 -34.77604 139.42805 14435 ft 313 kts 271°
2026-04-30 09:14 -34.77687 139.40163 14042 ft 312 kts 271°
2026-04-30 09:14 -34.77759 139.37529 13651 ft 311 kts 271°
2026-04-30 09:15 -34.77821 139.34904 13261 ft 310 kts 271°
2026-04-30 09:15 -34.77879 139.32287 12870 ft 309 kts 271°
2026-04-30 09:15 -34.77936 139.29680 12482 ft 308 kts 271°
2026-04-30 09:15 -34.77995 139.27081 12094 ft 307 kts 271°
2026-04-30 09:16 -34.78052 139.24492 11706 ft 306 kts 271°
2026-04-30 09:16 -34.78108 139.21911 11319 ft 305 kts 271°
2026-04-30 09:16 -34.78162 139.19338 10934 ft 304 kts 271°
2026-04-30 09:16 -34.78218 139.16765 10448 ft 306 kts 270°
2026-04-30 09:17 -34.78276 139.14177 10033 ft 306 kts 271°
2026-04-30 09:17 -34.78333 139.11613 9820 ft 299 kts 271°
2026-04-30 09:17 -34.78390 139.09128 9621 ft 291 kts 271°
2026-04-30 09:17 -34.78444 139.06679 9302 ft 289 kts 271°
2026-04-30 09:18 -34.78496 139.04239 8947 ft 288 kts 271°
2026-04-30 09:18 -34.78548 139.01807 8598 ft 287 kts 271°
2026-04-30 09:18 -34.78599 138.99386 8261 ft 286 kts 271°
2026-04-30 09:18 -34.78649 138.96986 7821 ft 282 kts 271°
2026-04-30 09:19 -34.78697 138.94607 7249 ft 280 kts 271°
2026-04-30 09:19 -34.78744 138.92294 7017 ft 266 kts 271°
2026-04-30 09:19 -34.78791 138.90088 6654 ft 257 kts 271°
2026-04-30 09:19 -34.78837 138.87928 6253 ft 252 kts 271°
2026-04-30 09:20 -34.78881 138.85854 5889 ft 245 kts 271°
2026-04-30 09:20 -34.78921 138.83794 5569 ft 243 kts 272°
2026-04-30 09:20 -34.78958 138.81743 5263 ft 243 kts 272°
2026-04-30 09:20 -34.78996 138.79697 4964 ft 242 kts 272°
2026-04-30 09:21 -34.79041 138.77659 4668 ft 241 kts 269°
2026-04-30 09:21 -34.79461 138.75722 4413 ft 234 kts 246°
2026-04-30 09:21 -34.80394 138.74146 4137 ft 226 kts 233°
2026-04-30 09:21 -34.81398 138.72701 3831 ft 216 kts 233°
2026-04-30 09:22 -34.82332 138.71351 3573 ft 207 kts 233°
2026-04-30 09:22 -34.83249 138.70021 3291 ft 203 kts 234°
2026-04-30 09:22 -34.84133 138.68740 3020 ft 193 kts 233°
2026-04-30 09:22 -34.84986 138.67508 2772 ft 187 kts 233°
2026-04-30 09:23 -34.85807 138.66317 2526 ft 180 kts 233°
2026-04-30 09:23 -34.86603 138.65161 2305 ft 176 kts 232°
2026-04-30 09:23 -34.87377 138.64039 2061 ft 171 kts 231°
2026-04-30 09:23 -34.88120 138.62963 1856 ft 165 kts 231°
2026-04-30 09:24 -34.88855 138.61896 1623 ft 164 kts 230°
2026-04-30 09:24 -34.89574 138.60852 1412 ft 157 kts 230°
2026-04-30 09:24 -34.90256 138.59862 1200 ft 150 kts 230°
2026-04-30 09:24 -34.90921 138.58895 1005 ft 147 kts 229°
2026-04-30 09:25 -34.91576 138.57943 815 ft 146 kts 230°
2026-04-30 09:25 -34.92227 138.56994 636 ft 146 kts 229°
2026-04-30 09:25 -34.92876 138.56051 440 ft 145 kts 230°
2026-04-30 09:25 -34.93523 138.55112 250 ft 145 kts 229°
2026-04-30 09:26 -34.94173 138.54168 60 ft 145 kts 230°
2026-04-30 09:26 -34.94764 138.53306 22 ft 112 kts 230°
2026-04-30 09:26 -34.95147 138.52748 21 ft 57 kts 230°
2026-04-30 09:26 -34.95323 138.52493 20 ft 34 kts 230°
2026-04-30 09:27 -34.95422 138.52346 22 ft 16 kts 236°
2026-04-30 09:27 -34.95408 138.52228 21 ft 15 kts 316°
2026-04-30 09:27 -34.95304 138.52199 20 ft 16 kts 15°
2026-04-30 09:27 -34.95205 138.52286 21 ft 19 kts 39°
2026-04-30 09:28 -34.95093 138.52393 20 ft 22 kts 37°
2026-04-30 09:28 -34.94968 138.52510 20 ft 24 kts 38°
2026-04-30 09:28 -34.94828 138.52642 20 ft 26 kts 38°
2026-04-30 09:28 -34.94680 138.52782 20 ft 25 kts 38°
2026-04-30 09:29 -34.94561 138.52894 25 ft 18 kts 38°
2026-04-30 09:29 -34.94466 138.52983 23 ft 14 kts 42°
2026-04-30 09:29 -34.94448 138.53096 23 ft 15 kts 111°
2026-04-30 09:29 -34.94508 138.53216 25 ft 18 kts 116°
2026-04-30 09:30 -34.94506 138.53339 24 ft 13 kts 64°
2026-04-30 09:30 -34.94444 138.53433 25 ft 16 kts 50°
2026-04-30 09:30 -34.94368 138.53544 23 ft 17 kts 50°
2026-04-30 09:30 -34.94302 138.53641 25 ft 12 kts 49°
2026-04-30 09:31 -34.94239 138.53651 25 ft 10 kts 333°
2026-04-30 09:31 -34.94184 138.53649 27 ft 6 kts 17°
2026-04-30 09:31 -34.94154 138.53637 26 ft 4 kts 327°
2026-04-30 09:31 -34.94131 138.53613 27 ft 5 kts 320°
2026-04-30 09:32 -34.94111 138.53592 27 ft 1 kts 320°
2026-04-30 09:32 -34.94105 138.53586 27 ft 0 kts 320°